User: anonymous   Login
Location: Santa Barbara
(34.4500°N, 119.7700°W)
Time: 02:14:40
(UTC-07:00)
Language:

Cosmos 1626 Rocket - Orbit

View from above orbital plane
View from above orbital plane
View from above satellite
View from above satellite

Ground track
Ground track

The orbit data is extracted from the following two-line orbital elements,

1 15495U 85009B   15186.79922170  .00000352  00000-0  39702-4 0  9999
2 15495 082.5255 134.6628 0020808 156.0324 204.1864 14.83579185644338
Epoch (UTC): 05 July 2015 19:10:52
Eccentricity: 0.0020808
inclination: 82.5255°
perigee height: 603 km
apogee height: 632 km
right ascension of ascending node: 134.6628°
argument of perigee: 156.0324°
revolutions per day: 14.83579185
mean anomaly at epoch: 204.1864°
orbit number at epoch: 64433

The dashed part of the orbit path shows where the satellite is in the earth's shadow,  

DLR